SCP
0 0 0 0 0 0 0 0 0 0 0 0 0 0 0 0 0 0 0 0 0 0 0 1 1 1 1 1 1 1 1 1 1 1 1 1 2 2 2 1 1 1 1 1 1 0 0 0 0
0 0 0 0 0 0 0 0 0 0 0 0 0 0 0 0 0 0 0 0 0 0 1 1 1 1 1 1 1 1 1 1 1 1 1 1 2 2 2 1 1 1 1 1 1 0 0 1 1
1 1 0 0 0 0 0 0 0 0 0 0 0 0 0 0 0 0 0 0 0 0 1 1 1 1 1 1 1 1 1 1 1 1 1 1 1 2 2 2 1 1 1 1 1 1 1 1 1
1 1 0 0 0 0 0 0 0 0 0 0 0 0 0 0 0 0 0 0 0 0 1 1 1 1 1 1 1 1 1 1 0 0 0 1 1 1 1 1 1 1 1 1 1 1 1 1 1
1 1 0 0 0 0 0 0 0 0 0 0 0 0 0 0 0 0 0 0 0 1 1 1 1 1 1 1 1 1 1 1 1 0 0 1 1 1 1 1 1 1 1 1 1 1 1 1 1
1 1 0 0 0 0 0 0 0 0 0 0 0 0 0 0 0 0 0 0 0 1 1 1 1 1 1 1 1 1 1 1 1 1 1 1 1 1 1 1 1 1 1 1 1 1 1 1 1
0 0 0 0 0 0 0 0 0 0 0 0 0 0 0 0 0 0 0 0 0 1 1 1 1 1 1 0 0 0 1 1 1 1 1 1 1 1 1 1 1 1 1 1 1 1 1 1 1
0 0 0 0 0 0 0 0 0 0 0 0 0 0 0 0 0 0 0 0 0 1 1 1 1 0 0 0 0 0 0 1 1 1 1 1 1 1 1 1 1 1 1 1 1 1 1 0 0
0 0 0 0 0 0 0 0 0 0 0 0 0 0 0 0 0 0 1 1 1 1 1 1 1 0 0 0 0 0 0 0 1 1 1 1 0 0 0 0 1 1 1 1 1 0 0 0 0
0 0 0 0 0 0 0 0 0 0 0 0 0 0 0 0 0 0 0 0 1 1 1 1 1 0 0 0 0 0 1 1 1 1 1 1 1 1 0 0 0 1 1 0 0 0 0 0 0
0 0 0 0 0 0 0 0 0 0 0 0 0 0 0 0 0 0 0 0 1 1 1 1 1 1 0 0 0 0 1 1 1 1 1 1 1 1 1 1 1 1 1 1 1 1 1 0 0
0 0 0 0 0 0 0 0 0 0 0 0 0 0 0 0 0 0 0 0 1 1 1 1 1 1 0 0 0 0 0 1 1 1 1 1 1 1 1 1 1 1 1 1 1 1 1 1 0
0 0 0 0 0 0 0 0 0 0 0 0 0 0 0 0 0 0 0 0 1 1 1 1 1 0 0 0 0 0 0 0 1 1 1 1 1 1 1 1 1 1 1 1 1 1 1 1 0
0 0 0 0 0 0 0 0 0 0 0 0 0 0 0 0 0 0 0 0 1 1 1 1 1 0 0 0 0 0 0 0 0 0 0 0 0 1 1 1 0 0 0 0 1 1 1 1 0
0 0 0 0 0 0 0 0 0 0 0 0 0 0 0 0 0 0 0 0 0 1 1 1 1 0 0 0 0 0 0 0 0 0 0 0 0 0 1 0 0 0 0 0 0 1 1 0 0
0 0 0 0 0 0 0 0 0 0 0 0 0 0 0 0 0 0 0 0 0 1 1 1 1 0 0 0 0 0 0 0 0 0 0 0 0 0 0 0 0 0 0 0 0 0 0 0 0
0 0 0 0 0 0 0 0 0 0 0 0 0 0 0 0 0 0 0 0 0 0 1 1 0 0 0 0 0 0 0 0 0 0 0 0 0 0 0 0 0 0 0 0 0 0 0 0 0
0 0 0 0 0 0 0 0 0 0 0 0 0 0 0 0 0 0 0 0 0 0 1 1 0 0 0 0 0 0 0 0 0 0 0 0 0 0 0 0 0 0 0 0 0 0 0 0 0
0 0 0 0 0 0 0 0 0 0 0 0 0 0 0 0 0 0 0 0 0 0 1 1 0 0 0 0 0 0 0 0 0 0 0 0 0 0 0 0 0 0 0 0 0 0 0 0 0
0 0 0 0 0 0 0 0 0 0 0 0 0 0 0 0 0 0 0 0 0 0 0 1 0 0 0 0 0 0 0 0 0 0 0 0 0 0 0 0 0 0 0 0 0 0 0 0 0
0 0 0 0 0 0 0 0 0 0 0 0 0 0 0 0 0 0 0 0 0 0 0 0 0 0 0 0 0 0 0 0 0 0 0 0 0 0 0 0 0 0 0 0 0 0 0 0 0
0 0 0 0 0 0 0 0 0 0 0 0 0 0 0 0 0 0 0 0 0 0 1 0 0 0 0 0 0 0 0 0 0 0 0 0 0 0 0 0 0 0 0 0 0 0 0 0 0
0 0 0 0 0 0 0 0 0 0 0 0 0 0 0 0 0 0 0 0 0 0 1 0 0 0 0 0 0 0 0 0 0 0 0 0 0 0 0 0 0 0 0 0 0 0 0 0 0
0 0 0 0 0 0 0 0 0 0 0 0 0 0 0 0 0 0 0 0 0 0 0 0 0 0 0 0 0 0 0 0 0 0 0 0 0 0 0 0 0 0 0 0 0 0 0 0 0
0 0 0 0 0 0 0 0 0 0 0 0 0 0 0 0 0 0 0 0 0 0 0 0 0 0 0 0 0 0 0 0 0 0 0 0 0 0 0 0 0 0 0 1 1 0 0 0 0
0 0 0 0 0 0 0 0 0 0 0 0 0 0 0 0 0 0 0 0 0 0 0 0 0 0 0 0 0 0 0 0 0 0 0 0 0 0 0 0 0 0 1 1 0 0 0 0 0
0 0 0 0 0 0 0 0 0 0 0 0 0 0 0 0 0 0 0 0 0 0 0 0 0 0 0 0 0 0 0 0 0 0 0 0 0 0 0 0 0 1 1 1 0 0 0 0 0
0 0 0 0 0 0 0 0 0 0 0 0 0 0 0 0 0 0 0 0 0 0 0 0 0 0 0 0 0 0 0 0 0 0 0 0 0 0 0 0 0 0 1 1 0 0 0 0 0
0 0 0 0 0 0 0 0 0 0 0 0 0 0 0 0 0 0 0 0 0 0 0 0 0 0 0 0 0 0 0 0 0 0 0 0 0 0 0 0 0 0 0 0 0 0 0 0 0
0 0 0 0 0 0 0 0 0 0 0 0 0 0 0 0 0 0 0 0 0 0 0 0 0 0 0 0 0 0 0 0 0 0 0 0 0 0 0 0 0 0 0 0 0 0 0 0 0
Wind_Speed
2 1 2 2 3 4 6 5 3 3 3 1 1 2 2 2 3 2 4 1 0 3 5 5 3 5 6 6 6 6 6 6 6 6 6 6 6 7 7 6 6 6 6 7 7 8 8 9 9
0 1 2 2 5 6 6 5 6 4 0 1 1 2 2 2 2 2 2 1 1 3 4 5 4 5 5 5 6 5 5 5 5 6 6 6 6 6 6 6 6 6 7 7 7 7 8 8 8
1 1 2 3 5 6 4 3 4 2 0 2 1 1 2 1 1 1 2 1 2 3 4 4 4 5 5 5 5 5 4 5 5 5 5 5 5 6 6 6 6 6 6 7 7 7 7 7 7
2 2 2 5 8 7 5 2 1 2 2 1 2 2 1 1 2 2 1 2 4 4 3 4 4 5 5 4 4 4 4 5 5 4 5 5 5 5 5 6 6 6 6 6 6 6 6 6 7
2 3 5 7 9 6 4 3 2 3 2 2 2 3 2 1 1 1 2 3 4 4 3 4 3 4 4 4 4 4 3 4 5 4 5 5 6 5 5 5 5 6 6 6 6 6 6 6 6
3 3 6 9 9 6 5 4 4 5 4 3 3 4 2 1 1 1 2 3 3 3 3 3 4 3 4 4 4 3 3 3 4 4 4 4 5 6 5 4 5 5 5 6 6 6 5 5 6
4 4 7 9 8 7 5 3 5 6 6 5 3 4 2 1 0 1 2 2 2 2 3 2 3 3 3 3 3 3 2 2 3 4 3 4 5 6 5 4 5 5 5 5 5 5 5 5 5
2 3 7 8 9 8 3 4 4 6 6 2 3 5 2 0 1 2 2 2 2 2 2 2 2 3 3 3 3 2 3 3 3 3 4 4 5 5 5 4 4 4 4 4 4 4 5 5 5
3 6 8 8 7 5 3 4 3 2 3 2 3 4 3 2 3 3 2 2 1 1 2 2 2 2 2 3 3 3 3 3 3 3 4 3 3 4 4 4 4 4 4 4 4 3 4 4 4
5 8 9 5 5 4 3 4 3 3 5 5 5 4 1 2 3 4 4 4 3 3 2 2 2 2 2 2 2 2 2 2 2 2 3 2 2 2 3 5 4 4 4 3 3 3 3 2 2
4 7 5 5 4 4 4 5 4 6 7 7 7 5 3 3 4 5 5 5 5 4 2 2 3 3 2 2 2 1 1 1 2 2 2 2 2 2 2 2 2 3 2 2 2 2 1 1 1
4 5 5 4 3 4 6 5 6 8 9 6 6 5 4 5 6 6 6 5 4 4 4 3 2 3 3 2 1 1 1 1 1 2 2 2 1 1 1 1 1 1 1 1 1 1 1 1 1
7 4 3 4 4 5 5 8 8 11 10 8 6 5 6 6 6 6 6 5 5 4 4 3 3 3 3 2 2 1 1 1 2 2 2 1 1 2 1 1 1 1 1 1 1 2 2 1 1
3 4 5 5 5 4 6 9 8 11 7 7 6 6 6 7 7 5 5 5 5 5 4 4 4 3 3 3 2 2 1 1 2 2 2 2 2 2 2 1 1 1 1 1 1 2 2 1 1
3 4 6 6 5 4 5 10 11 10 6 7 7 7 6 6 6 6 5 5 5 4 4 4 4 4 4 3 3 2 2 2 2 2 2 2 2 2 2 2 1 1 1 1 1 2 2 1 1
3 5 6 3 4 3 5 12 6 3 5 7 7 7 6 6 5 5 5 4 4 4 3 3 3 4 4 3 3 2 2 2 2 2 2 3 2 2 2 2 2 1 1 2 2 2 1 1 1
5 6 7 4 2 2 6 11 6 3 5 7 7 7 6 5 5 5 4 4 4 3 3 3 3 4 4 3 3 2 2 2 2 2 2 2 2 2 2 1 1 2 1 1 1 1 1 1 1
6 6 6 7 2 3 8 12 10 6 6 8 7 6 6 5 5 4 3 3 3 3 3 3 3 3 3 3 2 2 3 2 2 2 2 3 3 3 2 2 2 2 2 1 1 1 1 1 1
6 7 9 7 3 4 9 13 13 9 7 8 8 6 6 5 4 3 2 2 1 2 2 2 3 3 2 2 2 2 3 3 3 2 3 4 3 3 3 2 3 2 2 2 2 1 1 1 1
8 9 9 6 2 5 8 12 11 8 8 7 7 7 6 4 3 2 2 2 2 2 3 3 3 3 3 2 2 2 2 3 2 2 3 4 4 4 3 4 3 3 3 3 3 2 1 1 1
9 11 9 7 4 5 8 10 8 5 4 4 4 4 4 4 4 3 2 2 2 3 3 3 3 3 3 2 1 1 2 2 2 3 3 4 4 4 3 4 3 3 3 3 4 4 3 2 2
9 8 8 7 6 4 4 8 7 5 4 3 3 3 4 4 4 3 3 2 3 3 3 3 3 3 3 3 2 3 3 3 4 3 3 3 4 4 4 4 4 4 3 3 4 4 3 3 3
6 3 6 6 6 6 5 7 7 3 5 3 3 3 4 4 4 3 3 3 3 2 2 2 3 3 3 3 3 4 3 3 2 2 4 4 4 4 4 4 4 4 4 4 4 4 4 3 3
3 2 3 4 4 8 8 8 8 3 4 3 2 3 4 4 4 4 3 2 2 1 1 1 2 2 2 3 3 4 4 3 3 3 4 4 3 3 5 5 4 5 4 5 5 5 5 4 4
4 4 3 4 5 7 3 7 7 3 2 2 3 3 3 3 3 4 4 3 2 2 1 2 2 2 2 3 3 4 4 5 5 4 4 4 3 4 5 5 5 5 5 5 5 5 5 5 5
7 7 6 5 5 4 4 8 4 1 2 2 3 3 3 3 3 4 4 3 3 3 2 2 2 2 3 3 4 4 4 3 3 4 4 4 4 4 5 6 6 6 5 5 5 4 5 5 5
5 7 5 3 2 5 6 4 5 1 1 2 2 2 3 3 3 3 3 4 4 3 3 3 3 2 3 3 4 4 4 4 4 4 4 3 3 3 5 6 6 6 6 6 6 5 5 5 5
4 3 4 5 5 6 6 6 5 2 3 2 2 2 3 3 3 3 3 3 3 3 3 3 3 3 3 3 3 3 4 4 4 4 4 4 4 4 5 5 6 6 6 6 6 5 5 6 5
5 5 4 4 4 5 6 4 1 3 3 2 2 2 3 3 4 3 3 3 3 3 3 3 3 3 3 3 3 3 4 4 4 4 4 4 4 4 5 5 6 6 6 6 6 6 5 6 6
4 5 6 5 5 5 6 5 2 2 1 1 2 2 3 3 3 3 4 4 4 4 4 3 3 3 3 3 3 3 4 3 4 4 4 4 4 4 5 5 5 5 6 6 6 7 6 6 7
Wind_Direction
350 296 245 224 211 224 234 219 218 201 192 109 19 258 255 270 292 3 54 76 156 160 163 163 150 138 137 132 126 124 125 127 130 130 134 133 130 130 130 128 122 117 114 108 104 101 99 98 96
346 255 223 217 232 229 230 217 214 223 121 115 199 240 237 245 343 11 62 58 180 160 162 157 127 131 130 129 130 127 127 130 129 125 127 133 136 134 129 125 121 119 117 110 109 104 100 99 99
173 274 227 210 226 238 233 199 216 209 245 240 222 266 287 310 33 360 33 138 167 151 158 141 121 127 127 128 130 134 132 136 130 129 124 122 131 131 125 124 125 122 119 114 111 107 104 100 102
204 179 213 230 228 236 249 227 202 197 187 231 239 215 190 3 343 7 65 156 157 147 155 141 124 128 129 128 130 140 138 141 136 134 134 129 122 122 122 122 122 122 119 117 114 111 108 105 107
207 207 215 229 238 235 239 252 241 231 216 206 230 246 221 119 3 68 141 157 157 151 151 147 120 120 120 124 127 128 137 143 144 139 136 130 119 113 114 123 122 126 121 117 113 111 111 110 110
184 214 230 235 235 233 236 239 238 249 249 245 248 252 244 101 210 166 156 166 161 155 141 140 111 107 108 113 121 114 120 139 147 138 134 132 124 114 107 114 124 125 123 116 112 109 112 116 117
214 219 240 244 247 244 230 219 237 247 250 249 250 245 216 175 220 154 157 164 164 159 147 143 148 139 119 111 112 113 111 113 134 132 130 130 124 118 111 105 117 121 120 117 114 115 110 108 113
229 227 237 235 239 248 226 214 245 258 263 275 240 246 256 82 103 136 151 172 174 181 176 163 166 168 169 157 123 109 99 98 113 122 115 114 117 119 110 111 105 110 111 113 114 115 117 108 106
207 227 234 230 231 238 194 218 234 263 247 234 233 269 332 78 136 150 164 194 196 218 206 191 193 186 180 173 144 139 116 108 125 132 117 136 155 147 128 106 96 100 97 105 114 116 113 107 106
210 232 237 238 238 243 226 243 250 230 242 246 244 250 252 166 182 196 210 221 224 232 220 196 195 190 189 181 165 167 165 156 165 162 154 164 154 135 126 102 89 87 87 96 105 101 124 147 151
211 237 239 238 238 245 249 257 257 247 255 257 261 259 234 214 220 224 227 231 231 225 223 219 198 187 186 183 176 159 162 155 157 149 141 147 141 136 142 135 126 118 116 130 133 154 179 184 182
214 239 245 251 246 246 254 256 253 245 257 283 279 273 249 232 230 235 238 235 233 225 224 221 212 191 188 180 169 166 166 156 151 145 141 147 140 139 150 162 163 166 167 169 177 188 196 195 190
220 233 236 244 252 258 260 254 260 259 262 270 271 256 246 241 240 243 246 245 237 232 229 222 216 204 189 180 172 170 166 163 161 154 151 160 159 161 161 166 178 187 181 186 194 194 194 206 207
217 230 249 252 245 245 253 265 257 259 260 258 253 250 250 251 250 249 245 243 239 237 232 219 210 207 196 183 176 179 178 168 176 168 160 175 181 168 163 163 170 186 207 217 216 209 204 210 211
212 248 255 242 236 237 258 265 244 257 256 257 257 258 262 263 258 253 252 247 242 238 231 217 210 203 198 189 181 179 174 182 181 174 169 176 187 177 168 171 177 186 199 214 213 210 212 209 213
214 235 250 231 227 223 236 266 269 270 251 259 261 262 264 267 263 260 259 254 247 237 228 221 211 207 199 193 186 182 181 186 187 187 179 179 183 185 169 181 187 192 194 205 205 209 207 212 227
213 242 253 257 211 218 228 265 284 285 260 267 271 268 265 265 267 267 263 253 242 231 220 209 208 211 205 195 191 189 186 191 192 191 189 187 185 187 177 186 198 191 190 204 207 213 223 227 241
228 240 249 254 224 231 246 261 276 285 276 271 273 272 264 260 269 279 273 263 243 230 217 203 199 205 203 195 191 193 193 196 202 200 202 199 194 192 187 186 196 189 182 192 208 214 236 238 241
239 242 256 261 252 249 255 269 279 284 275 273 271 268 262 263 279 294 283 266 237 219 214 203 196 195 191 192 196 208 210 204 205 207 207 205 199 197 199 195 196 197 194 195 197 204 215 237 233
229 244 258 271 248 249 268 273 275 273 266 267 272 273 276 281 288 293 287 262 236 223 217 208 200 192 202 212 209 223 221 224 219 214 212 207 203 203 206 205 205 203 200 194 195 196 211 234 240
236 238 248 259 279 239 274 272 259 256 256 271 287 287 290 288 292 295 289 266 246 233 224 220 212 206 208 217 209 195 201 204 211 216 215 214 210 206 206 210 208 206 209 203 200 206 208 208 225
243 237 242 247 258 258 262 280 269 266 274 290 304 303 305 304 300 301 295 278 252 244 231 220 211 207 206 201 210 212 223 225 226 223 218 216 216 214 207 210 212 208 213 213 207 211 220 213 213
241 236 231 236 241 257 233 253 277 267 269 291 308 311 309 315 315 307 299 284 271 257 239 226 214 207 206 214 218 222 236 248 239 223 216 215 215 218 217 217 215 214 214 218 214 213 219 219 221
202 192 204 211 226 246 234 234 268 252 268 297 325 331 329 328 326 325 325 315 297 288 259 239 223 222 222 226 228 231 235 242 244 237 222 217 218 219 221 222 221 221 220 217 218 215 219 225 227
206 208 228 223 222 240 206 228 253 271 281 286 302 322 331 332 334 338 346 347 334 318 289 260 240 237 236 236 239 242 242 240 237 240 235 226 219 222 221 223 224 224 225 223 218 217 221 224 226
210 216 222 242 248 247 198 231 242 286 309 304 305 316 328 335 342 340 343 340 338 327 311 282 256 252 248 244 247 247 248 246 247 245 243 239 237 229 223 222 227 229 227 223 219 219 222 226 227
203 219 239 240 262 257 234 240 258 247 281 295 310 326 330 338 343 341 340 336 334 333 326 306 289 271 262 256 254 250 249 252 256 251 244 242 249 248 231 224 226 227 225 224 220 221 220 223 226
244 201 193 211 232 248 250 238 240 232 257 282 309 328 338 351 351 346 335 333 332 329 333 325 307 292 272 264 258 256 251 251 255 252 246 247 248 245 236 235 230 227 225 224 223 227 223 224 226
191 194 212 218 240 242 258 246 189 219 226 245 279 320 334 342 344 344 340 340 342 345 344 335 326 310 296 277 263 258 255 255 253 253 253 250 249 241 235 237 238 227 225 225 224 227 225 227 229
217 209 202 217 225 233 258 262 114 198 246 271 297 324 333 341 348 348 346 350 349 346 341 334 328 317 308 295 279 265 261 255 253 255 255 253 251 243 239 239 239 235 228 225 227 228 226 226 228